| time (UTC) | temp F | wind direction | speed MPH | gust MPH | rain 1hr in | rain 24hr in | rain mn in | humidity % | barometer mb |
| 20260902031425 | 61 | 316 | 0.0 | 2.0 | 0.00 | 0.00 | 0.00 | 91 | 1017.5 |
| 20260902030419 | 61 | 324 | 0.0 | 5.0 | 0.00 | 0.00 | 0.00 | 91 | 1017.3 |
| 20260902025415 | 62 | 319 | 1.0 | 4.0 | 0.00 | 0.00 | 0.00 | 90 | 1017.3 |
| 20260902024428 | 62 | 317 | 0.0 | 7.0 | 0.00 | 0.00 | 0.00 | 90 | 1017.3 |
| 20260902023422 | 62 | 325 | 6.0 | 8.0 | 0.00 | 0.00 | 0.00 | 90 | 1017.3 |
| 20260902022436 | 63 | 325 | 4.0 | 9.0 | 0.00 | 0.00 | 0.00 | 89 | 1017.4 |
| 20260902021432 | 63 | 320 | 5.0 | 10.0 | 0.00 | 0.00 | 0.00 | 87 | 1017.4 |
| 20260902020426 | 63 | 313 | 4.0 | 9.0 | 0.00 | 0.00 | 0.00 | 86 | 1017.3 |
| 20260902015418 | 64 | 294 | 2.0 | 16.0 | 0.00 | 0.00 | 0.00 | 86 | 1017.2 |
| 20260902014416 | 64 | 330 | 7.0 | 15.0 | 0.00 | 0.00 | 0.00 | 85 | 1017.2 |
| 20260902013430 | 64 | 324 | 3.0 | 12.0 | 0.00 | 0.00 | 0.00 | 85 | 1017.1 |
| 20260902012444 | 65 | 291 | 8.0 | 17.0 | 0.00 | 0.00 | 0.00 | 83 | 1017.2 |
| 20260902011418 | 66 | 310 | 6.0 | 12.0 | 0.00 | 0.00 | 0.00 | 80 | 1017.1 |
| 20260902010435 | 66 | 273 | 5.0 | 11.0 | 0.00 | 0.00 | 0.00 | 78 | 1017.1 |
| 20260902005427 | 67 | 272 | 7.0 | 14.0 | 0.00 | 0.00 | 0.00 | 76 | 1017.1 |
| 20260902004419 | 67 | 310 | 3.0 | 14.0 | 0.00 | 0.00 | 0.00 | 73 | 1017.1 |
| 20260902003433 | 67 | 320 | 6.0 | 18.0 | 0.00 | 0.00 | 0.00 | 71 | 1016.9 |
| 20260902002445 | 67 | 317 | 8.0 | 14.0 | 0.00 | 0.00 | 0.00 | 68 | 1016.9 |
| 20260902001422 | 67 | 287 | 7.0 | 14.0 | 0.00 | 0.00 | 0.00 | 68 | 1016.9 |
| 20260902000454 | 67 | 311 | 6.0 | 12.0 | 0.00 | 0.00 | 0.00 | 68 | 1017.0 |
| 20260901235444 | 68 | 335 | 3.0 | 13.0 | 0.00 | 0.00 | 0.00 | 66 | 1017.0 |
| 20260901234417 | 68 | 298 | 5.0 | 15.0 | 0.00 | 0.00 | 0.00 | 67 | 1017.0 |
| 20260901233434 | 69 | 308 | 6.0 | 11.0 | 0.00 | 0.00 | 0.00 | 65 | 1017.0 |
| 20260901232427 | 69 | 325 | 5.0 | 14.0 | 0.00 | 0.00 | 0.00 | 67 | 1017.0 |
| 20260901231421 | 68 | 312 | 7.0 | 17.0 | 0.00 | 0.00 | 0.00 | 68 | 1017.0 |
| 20260901230454 | 68 | 317 | 4.0 | 13.0 | 0.00 | 0.00 | 0.00 | 68 | 1017.0 |
| 20260901225429 | 69 | 336 | 10.0 | 13.0 | 0.00 | 0.00 | 0.00 | 67 | 1017.1 |
| 20260901224420 | 70 | 324 | 6.0 | 12.0 | 0.00 | 0.00 | 0.00 | 65 | 1017.0 |
| 20260901223433 | 70 | 283 | 6.0 | 17.0 | 0.00 | 0.00 | 0.00 | 65 | 1017.1 |
| 20260901222426 | 69 | 322 | 5.0 | 17.0 | 0.00 | 0.00 | 0.00 | 66 | 1017.2 |
| 20260901221423 | 68 | 320 | 5.0 | 18.0 | 0.00 | 0.00 | 0.00 | 64 | 1017.3 |
| 20260901220436 | 69 | 273 | 6.0 | 14.0 | 0.00 | 0.00 | 0.00 | 65 | 1017.2 |
| 20260901215427 | 68 | 327 | 7.0 | 15.0 | 0.00 | 0.00 | 0.00 | 66 | 1017.2 |
| 20260901214440 | 69 | 329 | 5.0 | 15.0 | 0.00 | 0.00 | 0.00 | 66 | 1017.3 |
| 20260901213417 | 70 | 286 | 8.0 | 16.0 | 0.00 | 0.00 | 0.00 | 66 | 1017.1 |
| 20260901212432 | 70 | 291 | 5.0 | 12.0 | 0.00 | 0.00 | 0.00 | 66 | 1017.0 |
| 20260901211424 | 69 | 296 | 7.0 | 16.0 | 0.00 | 0.00 | 0.00 | 66 | 1017.1 |
| 20260901210415 | 70 | 308 | 6.0 | 10.0 | 0.00 | 0.00 | 0.00 | 66 | 1017.0 |
| 20260901205453 | 69 | 303 | 5.0 | 10.0 | 0.00 | 0.00 | 0.00 | 65 | 1017.0 |
| 20260901204425 | 68 | 261 | 4.0 | 10.0 | 0.00 | 0.00 | 0.00 | 65 | 1017.0 |
| 20260901203420 | 68 | 320 | 8.0 | 16.0 | 0.00 | 0.00 | 0.00 | 67 | 1017.1 |
| 20260901202453 | 69 | 332 | 4.0 | 15.0 | 0.00 | 0.00 | 0.00 | 66 | 1017.2 |
| 20260901201429 | 71 | 310 | 5.0 | 13.0 | 0.00 | 0.00 | 0.00 | 58 | 1017.5 |
| 20260901200423 | 70 | 250 | 8.0 | 18.0 | 0.00 | 0.00 | 0.00 | 59 | 1017.5 |
| 20260901195454 | 71 | 336 | 3.0 | 10.0 | 0.00 | 0.00 | 0.00 | 58 | 1017.5 |
| 20260901194427 | 70 | 271 | 5.0 | 14.0 | 0.00 | 0.00 | 0.00 | 60 | 1017.5 |
| 20260901193425 | 70 | 305 | 3.0 | 10.0 | 0.00 | 0.00 | 0.00 | 61 | 1017.3 |
| 20260901192418 | 70 | 279 | 4.0 | 14.0 | 0.00 | 0.00 | 0.00 | 62 | 1017.5 |
| 20260901191430 | 70 | 286 | 6.0 | 11.0 | 0.00 | 0.00 | 0.00 | 64 | 1017.5 |
| 20260901190427 | 69 | 292 | 3.0 | 8.0 | 0.00 | 0.00 | 0.00 | 65 | 1017.4 |
| 20260901185418 | 67 | 258 | 6.0 | 10.0 | 0.00 | 0.00 | 0.00 | 68 | 1017.6 |
| 20260901184430 | 66 | 311 | 5.0 | 11.0 | 0.00 | 0.00 | 0.00 | 70 | 1017.7 |
| 20260901183423 | 67 | 315 | 7.0 | 13.0 | 0.00 | 0.00 | 0.00 | 71 | 1017.6 |
| 20260901182420 | 67 | 322 | 7.0 | 11.0 | 0.00 | 0.00 | 0.00 | 71 | 1017.5 |
| 20260901091430 | 57 | 302 | 3.0 | 5.0 | 0.00 | 0.00 | 0.00 | 95 | 1014.8 |
| 20260901090425 | 57 | 271 | 2.0 | 6.0 | 0.00 | 0.00 | 0.00 | 95 | 1014.8 |
| 20260901085421 | 57 | 301 | 1.0 | 4.0 | 0.00 | 0.00 | 0.00 | 95 | 1014.8 |
| 20260901084414 | 57 | 301 | 2.0 | 5.0 | 0.00 | 0.00 | 0.00 | 94 | 1014.8 |
| 20260901083448 | 57 | 307 | 2.0 | 8.0 | 0.00 | 0.00 | 0.00 | 94 | 1014.8 |
| 20260901082441 | 57 | 312 | 1.0 | 6.0 | 0.00 | 0.00 | 0.00 | 94 | 1014.7 |
| 20260901081417 | 57 | 296 | 0.0 | 7.0 | 0.00 | 0.00 | 0.00 | 94 | 1014.7 |
| 20260901080431 | 57 | 317 | 3.0 | 7.0 | 0.00 | 0.00 | 0.00 | 94 | 1014.8 |
| 20260901075423 | 57 | 314 | 3.0 | 7.0 | 0.00 | 0.00 | 0.00 | 94 | 1014.7 |
| 20260901074421 | 57 | 315 | 1.0 | 6.0 | 0.00 | 0.00 | 0.00 | 94 | 1014.7 |
| 20260901073414 | 57 | 289 | 3.0 | 6.0 | 0.00 | 0.00 | 0.00 | 94 | 1014.5 |
| 20260901072428 | 57 | 313 | 5.0 | 10.0 | 0.00 | 0.00 | 0.00 | 94 | 1014.6 |
| 20260901071422 | 57 | 292 | 4.0 | 8.0 | 0.00 | 0.00 | 0.00 | 94 | 1014.5 |
| 20260901070419 | 58 | 303 | 5.0 | 10.0 | 0.00 | 0.00 | 0.00 | 94 | 1014.4 |
| 20260901065510 | 58 | 286 | 5.0 | 11.0 | 0.00 | 0.00 | 0.00 | 93 | 1014.4 |
| 20260901064418 | 58 | 323 | 5.0 | 11.0 | 0.00 | 0.00 | 0.00 | 93 | 1014.6 |
| 20260901063432 | 58 | 291 | 6.0 | 14.0 | 0.00 | 0.00 | 0.00 | 93 | 1014.5 |
| 20260901062429 | 59 | 312 | 5.0 | 15.0 | 0.00 | 0.00 | 0.00 | 93 | 1014.6 |
| 20260901061443 | 59 | 308 | 3.0 | 10.0 | 0.00 | 0.00 | 0.00 | 93 | 1014.6 |
| 20260901060416 | 59 | 287 | 3.0 | 9.0 | 0.00 | 0.00 | 0.00 | 93 | 1014.6 |
| 20260901055427 | 59 | 311 | 2.0 | 9.0 | 0.00 | 0.00 | 0.00 | 92 | 1014.6 |
| 20260901054424 | 59 | 300 | 5.0 | 11.0 | 0.00 | 0.00 | 0.00 | 93 | 1014.8 |
| 20260901053418 | 59 | 297 | 4.0 | 9.0 | 0.00 | 0.00 | 0.00 | 93 | 1014.7 |
| 20260901052431 | 59 | 298 | 4.0 | 8.0 | 0.00 | 0.00 | 0.00 | 93 | 1014.8 |
| 20260901051430 | 59 | 287 | 6.0 | 10.0 | 0.00 | 0.00 | 0.00 | 93 | 1014.9 |
| 20260901050444 | 59 | 301 | 3.0 | 11.0 | 0.00 | 0.00 | 0.00 | 92 | 1014.9 |
| 20260901045414 | 59 | 298 | 5.0 | 12.0 | 0.00 | 0.00 | 0.00 | 92 | 1014.9 |
| 20260901044446 | 59 | 312 | 6.0 | 12.0 | 0.00 | 0.00 | 0.00 | 92 | 1014.8 |
| 20260901043422 | 59 | 312 | 5.0 | 11.0 | 0.00 | 0.00 | 0.00 | 92 | 1014.8 |
| 20260901042416 | 60 | 307 | 3.0 | 14.0 | 0.00 | 0.00 | 0.00 | 92 | 1014.8 |
| 20260901041449 | 60 | 324 | 7.0 | 13.0 | 0.00 | 0.00 | 0.00 | 92 | 1014.8 |
| 20260901040442 | 60 | 329 | 8.0 | 16.0 | 0.00 | 0.00 | 0.00 | 92 | 1014.8 |
| 20260901035417 | 60 | 285 | 7.0 | 15.0 | 0.00 | 0.00 | 0.00 | 91 | 1014.6 |
| 20260901034432 | 60 | 290 | 6.0 | 11.0 | 0.00 | 0.00 | 0.00 | 91 | 1014.4 |
| 20260901033445 | 60 | 327 | 4.0 | 8.0 | 0.00 | 0.00 | 0.00 | 91 | 1014.3 |
| 20260901032418 | 60 | 294 | 1.0 | 9.0 | 0.00 | 0.00 | 0.00 | 91 | 1014.2 |